COSMOS 2329

导读 | 豆包AI

COSMOS 2329是苏联解体后独立国家联合体(CIS)于1996年2月19日发射的卫星,隶属于庞大的“宇宙号”(COSMOS)卫星系列。该系列自1962年开始发射,以多用途混编为特点,多数为军用卫星,包含试验任务航天器。作为冷战后独联体时期延续苏联航天项目的产物,它延续了宇宙系列在军事、空间探测等领域的应用,是俄罗斯航天传承发展的见证。

基本信息
目录编号:
23791
目录名称:
COSMOS 2329
国际标识:
1996-009E
轨道中心:
EARTH
卫星名称:
COSMOS 2329
卫星全名:
--
卫星状态:
在轨 (已飞行10971 天)
发射日期:
1996-02-19 UTC
国别 :
俄罗斯(独联体) (CIS)
星等 :
--
轨道信息
数据来源 国际轨道数据
星历时间: 2026-03-04T16:56:57+0800
8小时前
查看轨道信息
半长轴: 7794.065km
偏心率: 0.0007968
轨道倾角: 82.573°
近地点辐角 309.007°
升交点赤经 32.698°
平近点角 210.417°
近地点: 1409.717km
远地点: 1422.139km
周期: 114.132分钟
每日圈数: 12.617019
详细信息
使用方式:
暂无
2D轨道图
3D轨道图
轨道高度分析图
轨道倾角分析图
轨道综合分析图
查看轨道综合分析图